Content
SEND FEEDBACK

Daily
Averages
Monthly
Summary
Canada

VANCOUVER, BRITISH COLUMBIA


Home > North America > Canada > British Columbia
Elevation: 7 feet     Latitude: 49 11N     Longitude: 123 10W

WEATHER
 
SELECT A DAY
Number of Records: 249,842;   Date Range: 5/15/97 - 9/17/14
 
SHARE

PRINT THIS DATA

[ ← Previous Day ]
WEATHER ALMANAC - JANUARY 20, 2014
[ Next Day → ]
[ °C ]   °F
Weather ElementAverageHighLow
Temperature40.8 °F42.8 °F (1:15 pm)39.2 °F (1:15 am)
Dewpoint38.4 °F41 °F (9:35 pm)35.6 °F (12:15 pm)
Humidity91.1 %100 % (9:35 pm)81 % (12:15 pm)
Barometer30.32 in30.36 in (10:15 am)30.29 in (4:55 pm)
Wind Speed5.7 mph9.2 mph (1:55 pm)
Weather ElementAverage
Visibility8.8 mi
Wind DirectionS (178 °)

Weather ElementTotal
Precipitation---
Heating Degree Days24 (Base 65)
Averaged from 71 records on January 20, 2014
WEATHER CONDITIONS BREAKOUT
WIND DIRECTION BREAKOUT
WEATHER BY HOUR - JANUARY 20, 2014
[ °C ]   °F
Local TimeTemperatureDewpointHumidityBarometerVisibilityWind DirectionWind SpeedGust SpeedPrecipitationEventsConditions
12:35 AM41.0 °F37.4 °F87 %30.32 in6.0 miNE (50°)5.8 mphOvercast
12:55 AM41.0 °F37.4 °F87 %30.32 in5.0 miENE (60°)6.9 mphOvercast
1:15 AM39.2 °F37.4 °F93 %30.32 in5.0 miNE (50°)3.5 mphOvercast
1:35 AM39.2 °F37.4 °F93 %30.33 in5.0 miNE (50°)3.5 mphOvercast
1:55 AM39.2 °F37.4 °F93 %30.33 in5.0 miENE (60°)5.8 mphOvercast
2:15 AM39.2 °F37.4 °F93 %30.33 in5.0 miENE (70°)3.5 mphOvercast
2:35 AM39.2 °F37.4 °F93 %30.33 in5.0 miCalmOvercast
2:55 AM39.2 °F37.4 °F93 %30.33 in5.0 miNorthMostly Cloudy
3:15 AM39.2 °F37.4 °F93 %30.32 in5.0 miNE (40°)3.5 mphPartly Cloudy
3:35 AM39.2 °F37.4 °F93 %30.32 in5.0 miNE (40°)3.5 mphMostly Cloudy
3:55 AM39.2 °F37.4 °F93 %30.32 in6.0 miNNE (30°)4.6 mphOvercast
4:15 AM39.2 °F37.4 °F93 %30.33 in6.0 miCalmOvercast
4:35 AM39.2 °F37.4 °F93 %30.33 in7.0 miCalmOvercast
4:55 AM39.2 °F37.4 °F93 %30.33 in7.0 miNorthOvercast
5:15 AM41.0 °F39.2 °F93 %30.32 in7.0 miNNE (30°)4.6 mphOvercast
5:35 AM41.0 °F39.2 °F93 %30.32 in8.0 miNorth (10°)5.8 mphOvercast
5:55 AM41.0 °F37.4 °F87 %30.32 in10.0 miNorth (10°)5.8 mphOvercast
6:15 AM41.0 °F37.4 °F87 %30.32 in10.0 miNorth (360°)6.9 mphOvercast
6:35 AM39.2 °F37.4 °F93 %30.33 in10.0 miNorth (360°)5.8 mphMostly Cloudy
6:55 AM41.0 °F37.4 °F87 %30.33 in10.0 miNorth (10°)6.9 mphMostly Cloudy
7:15 AM39.2 °F37.4 °F93 %30.34 in10.0 miNorth (10°)5.8 mphScattered Clouds
7:35 AM39.2 °F37.4 °F93 %30.34 in10.0 miNorth (360°)6.9 mphScattered Clouds
7:55 AM39.2 °F37.4 °F93 %30.34 in10.0 miNorth (10°)6.9 mphPartly Cloudy
8:15 AM41.0 °F39.2 °F93 %30.34 in8.0 miNorth (10°)5.8 mphScattered Clouds
8:35 AM41.0 °F39.2 °F93 %30.35 in8.0 miNNE (20°)6.9 mphScattered Clouds
8:55 AM41.0 °F39.2 °F93 %30.35 in8.0 miNE (50°)3.5 mphMostly Cloudy
9:15 AM41.0 °F39.2 °F93 %30.35 in8.0 miNNE (30°)4.6 mphScattered Clouds
9:35 AM41.0 °F39.2 °F93 %30.35 in8.0 miCalmClear
9:55 AM41.0 °F37.4 °F87 %30.35 in9.0 miENE (60°)4.6 mphPartly Cloudy
10:15 AM41.0 °F39.2 °F93 %30.36 in9.0 miENE (70°)5.8 mphMostly Cloudy
10:35 AM41.0 °F37.4 °F87 %30.36 in9.0 miNE (50°)4.6 mphOvercast
10:55 AM41.0 °F37.4 °F87 %30.36 in9.0 miCalmOvercast
11:15 AM41.0 °F37.4 °F87 %30.35 in9.0 miNNE (30°)3.5 mphMostly Cloudy
11:35 AM41.0 °F37.4 °F87 %30.35 in10.0 miNorth (360°)5.8 mphMostly Cloudy
11:55 AM41.0 °F37.4 °F87 %30.34 in10.0 miNorth (10°)4.6 mphPartly Cloudy
12:15 PM41.0 °F35.6 °F81 %30.33 in10.0 miNorth (10°)4.6 mphClear
12:35 PM41.0 °F37.4 °F87 %30.33 in10.0 miNorth (10°)4.6 mphClear
12:55 PM41.0 °F37.4 °F87 %30.32 in9.0 miNorth (360°)5.8 mphClear
1:15 PM42.8 °F37.4 °F81 %30.32 in10.0 miNorth (360°)6.9 mphClear
1:35 PM42.8 °F37.4 °F81 %30.32 in10.0 miNorth (10°)6.9 mphClear
1:55 PM42.8 °F39.2 °F87 %30.31 in10.0 miNorth (350°)9.2 mphClear
2:15 PM42.8 °F39.2 °F87 %30.31 in10.0 miNorth (360°)8.1 mphPartly Cloudy
2:35 PM42.8 °F39.2 °F87 %30.31 in10.0 miNorth (350°)9.2 mphPartly Cloudy
2:55 PM42.8 °F39.2 °F87 %30.31 in10.0 miNorth (350°)8.1 mphClear
3:15 PM42.8 °F39.2 °F87 %30.31 in10.0 miNorth (350°)8.1 mphClear
3:35 PM42.8 °F39.2 °F87 %30.30 in10.0 miNorth (360°)5.8 mphClear
3:55 PM42.8 °F39.2 °F87 %30.30 in10.0 miNorth (360°)5.8 mphClear
4:15 PM41.0 °F39.2 °F93 %30.30 in10.0 miNorth (350°)5.8 mphClear
4:35 PM41.0 °F39.2 °F93 %30.30 in10.0 miNorth (360°)4.6 mphClear
4:55 PM41.0 °F39.2 °F93 %30.29 in10.0 miNorth (350°)8.1 mphClear
5:15 PM41.0 °F39.2 °F93 %30.29 in10.0 miNorth (360°)4.6 mphPartly Cloudy
5:35 PM41.0 °F39.2 °F93 %30.29 in10.0 miNorth (350°)5.8 mphScattered Clouds
5:55 PM41.0 °F39.2 °F93 %30.29 in10.0 miNorth (360°)5.8 mphScattered Clouds
6:15 PM41.0 °F39.2 °F93 %30.29 in10.0 miNorth (360°)5.8 mphPartly Cloudy
6:35 PM41.0 °F39.2 °F93 %30.30 in10.0 miNNW (340°)5.8 mphClear
6:55 PM41.0 °F39.2 °F93 %30.30 in10.0 miNorth (350°)6.9 mphClear
7:15 PM41.0 °F39.2 °F93 %30.30 in10.0 miNorth (360°)6.9 mphClear
7:35 PM41.0 °F39.2 °F93 %30.30 in10.0 miNorth (360°)8.1 mphClear
7:55 PM41.0 °F39.2 °F93 %30.30 in10.0 miNNE (20°)4.6 mphClear
8:15 PM41.0 °F39.2 °F93 %30.30 in10.0 miNorth (10°)4.6 mphClear
8:35 PM41.0 °F39.2 °F93 %30.30 in10.0 miNorth (360°)4.6 mphClear
8:55 PM41.0 °F39.2 °F93 %30.30 in10.0 miNorth (10°)4.6 mphClear
9:15 PM41.0 °F39.2 °F93 %30.30 in10.0 miNorth (10°)5.8 mphClear
9:35 PM41.0 °F41.0 °F100 %30.30 in10.0 miNorth (360°)8.1 mphClear
9:55 PM41.0 °F41.0 °F100 %30.30 in10.0 miNorth (350°)8.1 mphScattered Clouds
10:15 PM41.0 °F41.0 °F100 %30.30 in10.0 miNNW (340°)6.9 mphScattered Clouds
10:35 PM41.0 °F39.2 °F93 %30.30 in10.0 miNorth (350°)9.2 mphPartly Cloudy
10:55 PM41.0 °F39.2 °F93 %30.31 in10.0 miNorth (350°)9.2 mphClear
11:15 PM41.0 °F39.2 °F93 %30.31 in10.0 miNorth (350°)9.2 mphPartly Cloudy
11:35 PM41.0 °F39.2 °F93 %30.31 in10.0 miNorth (350°)9.2 mphPartly Cloudy
11:55 PM41.0 °F39.2 °F93 %30.31 in10.0 miNorth (350°)9.2 mphPartly Cloudy
Hourly data recorded from CZBB, located miles away from Vancouver, British Columbia







STORIES FROM OUR PARTNERS